Temperature
13 13 14 13 14 14 14 14 15 15 14 14 14 14 14 14 14 14 14 14 14 14 14 14 14 14 14 14 14 14 14 15 15 15 14 14 14 14 14 14 14 14 14
12 12 12 12 12 12 12 13 13 13 14 14 13 13 13 13 14 14 14 14 14 14 14 14 13 13 14 14 14 14 14 14 14 14 14 13 13 13 13 13 13 14 14
11 11 11 11 11 11 11 11 12 12 12 13 13 13 13 13 13 13 14 13 14 14 14 14 13 13 14 14 14 14 14 14 14 14 13 13 13 12 12 13 13 12 12
11 11 11 11 11 11 11 11 11 11 11 11 12 12 12 12 13 13 13 13 13 14 14 14 13 13 13 14 14 13 13 13 13 13 13 12 12 11 12 12 11 12 11
12 11 11 11 11 11 11 10 10 10 10 10 10 11 11 11 12 12 13 13 13 14 14 13 13 13 13 14 13 13 12 13 13 12 12 11 11 11 11 11 11 11 11
11 11 11 11 11 11 11 10 10 10 10 10 10 10 10 11 11 12 12 12 13 13 13 13 13 13 13 13 13 12 12 12 12 12 11 11 11 11 11 11 11 11 11
11 10 10 10 10 11 11 11 11 10 10 10 10 10 10 10 11 11 12 12 13 13 13 13 13 13 13 13 12 12 12 12 12 12 11 11 11 11 11 11 11 12 12
10 9 9 9 9 9 10 10 10 10 10 10 10 10 10 10 10 10 11 12 12 12 13 13 13 13 12 12 12 12 12 11 11 11 12 11 11 11 11 12 12 12 12
9 9 8 8 8 8 8 9 9 9 10 10 10 10 10 10 10 10 11 11 11 12 12 12 12 12 12 12 12 12 12 11 11 11 12 11 11 11 12 12 12 12 12
9 8 7 7 7 7 7 8 8 9 9 9 10 10 10 9 9 10 10 10 10 11 11 12 12 12 12 12 12 12 12 11 11 11 11 11 12 12 12 12 12 12 12
8 7 6 6 6 6 7 7 7 8 8 9 9 9 9 9 9 10 10 10 10 10 10 11 12 12 12 12 12 12 12 12 11 11 11 12 12 12 12 12 12 12 12
6 6 5 5 5 6 6 6 7 7 8 8 8 9 9 9 9 9 9 9 10 10 10 10 11 12 12 11 11 11 12 12 11 11 11 11 11 11 12 12 12 13 13
4 4 4 5 5 5 5 6 6 7 7 7 8 9 9 9 9 9 9 9 9 10 9 9 10 11 11 11 11 11 11 11 11 11 11 11 11 11 11 11 11 12 12
3 3 4 4 4 5 5 5 6 6 7 7 8 8 9 9 9 9 9 9 9 9 9 9 9 10 11 11 11 11 11 12 12 12 12 11 10 10 10 10 11 11 11
3 3 3 4 4 5 5 5 6 6 6 7 7 7 8 8 8 9 9 8 8 9 8 8 9 10 10 11 11 11 11 12 12 12 11 11 10 10 10 10 10 11 11
3 3 4 4 4 4 5 5 5 6 6 6 7 7 7 8 8 8 8 8 8 8 8 8 8 10 10 10 10 11 11 11 12 11 11 11 10 10 10 10 10 10 10
3 3 4 4 4 4 4 4 5 6 6 6 7 7 7 8 8 8 7 7 7 7 8 9 9 10 10 10 10 11 11 11 11 11 11 11 11 11 11 11 11 11 11
4 4 4 4 4 4 4 4 5 5 6 6 7 7 7 8 8 7 7 7 7 8 9 10 11 11 11 11 11 11 11 11 11 11 11 11 11 11 11 11 11 11 11
4 3 3 3 4 4 4 4 5 5 6 6 6 7 7 7 7 7 7 7 7 9 10 11 11 11 11 11 11 11 11 11 11 11 11 11 11 11 11 11 11 11 11
4 3 3 3 3 4 4 4 5 5 6 6 6 7 7 7 7 7 6 7 8 9 10 11 11 12 12 12 12 11 11 11 11 11 11 11 11 11 11 11 11 11 11
4 4 3 3 4 4 4 5 5 6 6 6 6 7 7 6 6 6 7 7 8 9 10 11 11 12 12 12 11 11 11 11 11 11 11 11 11 12 11 11 11 11 11
5 5 5 4 4 5 5 5 6 6 7 7 7 6 6 6 6 6 7 8 9 10 10 11 12 12 12 12 11 11 11 11 11 11 11 11 12 12 11 11 11 11 11
6 6 6 6 6 6 7 7 7 7 7 7 7 7 7 7 7 7 8 8 9 10 11 12 12 12 12 12 11 11 11 11 11 11 11 11 11 12 11 11 11 11 11
7 7 7 8 8 8 7 7 8 7 7 7 7 7 7 7 7 8 8 9 10 11 11 12 12 12 12 12 12 12 12 11 11 11 11 11 11 11 11 11 11 11 11
7 7 8 8 8 8 8 7 7 7 7 7 7 7 7 7 8 8 9 10 10 11 11 12 12 12 12 12 12 12 12 12 11 11 11 11 11 11 11 11 11 11 11
7 7 7 7 7 7 7 7 7 7 6 7 7 7 7 7 8 9 10 10 11 11 12 12 12 13 13 12 12 12 12 12 12 12 11 11 11 12 11 11 11 11 11
Wind_Speed
6 6 7 7 7 8 9 10 8 6 6 8 9 9 9 9 9 8 9 8 7 6 7 8 8 8 5 5 5 7 8 7 7 2 3 7 11 12 11 11 13 13 14
7 7 8 8 8 8 9 9 10 10 8 6 8 8 10 11 11 10 10 9 7 6 6 7 8 7 6 5 5 6 7 7 6 7 6 6 9 11 11 11 9 12 13
9 8 9 10 10 9 9 10 10 10 11 9 7 8 9 10 12 12 10 9 8 6 5 6 6 6 5 4 4 6 6 5 6 9 8 7 7 9 11 11 11 9 11
12 11 12 13 13 12 10 10 11 11 12 11 9 8 9 11 12 13 12 10 8 6 5 5 5 3 4 4 3 5 5 1 7 10 11 9 8 8 9 11 10 8 8
10 11 13 13 13 13 12 11 11 12 14 12 11 9 7 9 11 12 12 12 9 7 5 2 2 6 8 6 4 4 3 3 7 10 10 10 8 8 7 6 9 9 9
9 10 11 12 13 14 14 13 12 12 12 11 10 9 8 8 11 15 14 11 7 6 3 3 7 7 9 11 11 10 8 7 9 10 10 10 8 6 4 7 8 10 7
10 11 11 12 13 13 14 13 13 12 12 11 9 9 8 7 9 12 14 10 8 6 4 5 6 8 8 8 8 9 10 10 10 9 11 9 7 6 6 7 8 8 7
11 12 12 13 14 13 12 12 12 11 10 10 10 9 8 8 7 9 10 8 8 6 5 6 8 9 7 8 7 8 8 6 7 7 8 7 6 7 8 7 8 8 7
14 13 14 15 15 15 15 13 12 11 10 9 9 10 9 6 2 6 6 4 7 7 6 7 9 9 11 9 8 10 9 8 11 13 12 11 10 8 7 8 9 8 6
15 14 15 15 16 17 16 13 13 11 10 10 10 9 9 5 5 6 7 3 5 5 4 6 11 12 12 9 8 8 9 9 9 10 8 9 8 9 10 5 3 6 7
13 14 15 14 16 18 16 13 12 13 13 11 10 9 8 7 9 11 11 6 2 3 3 4 8 16 14 11 9 8 11 10 8 7 6 5 5 6 7 7 6 2 6
14 17 17 15 17 18 14 13 11 11 11 11 10 10 9 8 11 12 14 11 8 2 3 4 6 17 16 12 8 13 16 12 7 6 6 5 5 7 7 7 8 8 10
18 20 18 18 15 15 16 15 12 10 10 10 10 11 10 8 10 14 15 14 11 5 1 6 7 15 15 9 12 17 14 7 6 6 6 6 7 8 7 5 6 8 8
21 19 17 16 16 14 12 11 11 10 9 8 9 10 6 6 8 8 9 8 8 6 1 3 11 13 11 12 12 11 7 5 5 5 7 9 8 6 6 5 5 6 7
17 16 15 14 14 13 11 10 10 8 6 3 3 5 3 4 7 12 10 7 6 7 6 5 8 8 9 9 8 7 6 4 4 7 10 9 7 6 6 6 6 6 6
15 14 11 10 10 10 9 9 11 11 9 8 7 6 4 6 8 13 13 11 12 12 10 9 10 10 10 10 9 7 5 5 5 8 8 7 7 7 6 6 7 8 8
14 13 10 9 9 9 8 8 8 8 12 11 9 10 9 11 14 15 14 12 11 11 10 10 10 9 9 9 8 7 6 6 6 7 6 6 6 6 6 5 4 6 7
13 12 10 8 8 8 8 8 7 7 7 7 6 8 11 13 14 13 12 9 7 10 9 8 8 8 9 9 8 8 7 8 7 7 7 6 7 7 6 5 5 6 7
9 6 5 6 5 5 6 7 7 7 6 4 5 5 8 9 8 9 11 8 9 9 5 4 7 8 8 8 8 9 9 8 7 7 6 7 7 7 6 6 6 8 7
6 6 5 3 3 4 4 5 5 5 4 3 5 7 8 7 5 6 6 7 6 5 2 2 4 7 7 7 7 9 9 7 7 7 7 7 6 6 7 8 8 6 4
4 3 3 4 3 3 3 5 5 4 4 6 7 10 12 9 8 9 8 8 7 6 5 4 3 8 8 7 8 9 9 7 7 7 7 6 7 6 6 7 7 6 5
4 3 1 1 1 2 3 4 5 5 6 9 11 11 11 8 8 7 8 9 10 9 8 5 4 7 9 9 9 8 8 8 7 7 8 6 5 7 7 8 7 6 6
3 2 1 1 3 4 5 4 3 4 8 10 11 11 9 8 9 8 9 10 10 9 7 5 4 6 9 9 9 8 8 8 7 8 8 6 5 5 6 6 7 7 7
6 4 1 1 1 3 4 4 5 7 8 8 8 8 9 8 9 10 9 8 7 6 5 3 3 6 11 10 8 7 7 7 7 6 9 8 7 5 6 7 7 8 8
6 6 6 4 3 2 3 3 4 4 4 5 6 7 7 7 8 9 8 7 7 6 6 4 2 4 11 13 11 8 11 14 12 8 5 5 7 7 6 7 6 6 6
2 2 2 3 2 2 1 1 1 1 2 3 5 7 8 8 9 10 9 8 8 6 6 4 6 6 9 11 11 12 14 15 13 10 7 6 5 5 6 5 6 6 6
Wind_Direction
321 322 314 314 321 321 316 316 318 315 325 323 308 290 277 267 261 258 262 269 272 286 296 297 303 306 308 297 281 263 253 237 226 175 98 121 119 116 110 109 108 103 101
292 289 286 287 285 284 288 296 305 305 299 300 308 297 282 275 266 261 262 269 275 283 291 297 306 317 321 316 313 288 265 237 196 153 132 124 121 118 118 115 113 111 108
274 268 273 274 274 272 275 279 283 291 298 301 304 309 302 287 277 269 261 259 261 268 282 294 303 314 320 333 327 311 288 249 177 147 139 129 124 123 117 112 112 115 113
262 258 259 263 267 268 264 265 271 274 277 285 292 299 306 304 287 274 266 255 253 256 262 270 287 320 347 340 350 332 313 235 147 138 136 134 131 125 124 126 126 130 127
269 260 257 258 262 265 262 256 258 262 266 263 264 269 287 305 297 292 277 260 246 245 248 245 80 83 67 42 47 22 15 88 124 129 132 133 134 134 136 137 134 133 125
287 286 281 271 264 261 258 254 253 255 257 254 253 257 261 280 309 313 296 270 253 244 223 149 141 132 102 79 67 55 57 92 116 126 132 137 133 132 131 141 144 142 141
297 300 299 294 288 279 270 255 249 250 253 250 250 258 259 258 274 284 278 271 255 236 190 172 179 143 136 117 97 78 65 79 101 122 134 136 143 163 172 177 163 146 137
294 296 296 297 297 297 291 275 257 253 254 251 252 258 268 278 279 258 255 261 261 235 186 163 139 150 151 145 131 100 77 74 118 123 127 132 151 185 201 180 142 128 129
289 291 293 289 287 290 290 291 287 271 259 256 255 248 253 257 260 239 220 255 265 243 197 160 145 145 152 150 128 115 103 91 96 113 122 129 131 128 138 129 131 137 144
283 289 293 289 284 281 278 281 287 284 272 257 248 243 245 226 162 186 182 200 270 272 225 166 152 143 151 149 138 133 127 127 128 124 121 122 109 85 71 84 137 160 151
287 295 294 288 284 280 274 268 270 273 271 264 258 252 241 199 164 165 171 176 166 344 302 194 154 148 151 155 155 146 143 141 138 135 127 114 100 85 69 53 40 93 140
299 296 293 286 281 278 274 267 260 262 267 267 258 252 244 199 173 170 171 167 151 157 317 295 176 161 156 156 154 150 154 153 152 153 150 147 122 94 79 63 52 59 88
296 291 287 282 275 273 272 269 265 258 257 258 254 246 237 204 179 182 183 173 154 149 249 297 214 171 152 148 152 156 165 179 166 163 153 130 112 109 103 88 73 69 67
288 285 282 277 272 267 264 263 263 258 250 246 250 258 241 181 176 186 195 186 152 125 106 224 185 171 152 141 153 163 185 201 164 148 124 117 119 130 138 145 129 111 95
285 281 276 271 267 264 259 256 258 250 223 203 273 292 263 201 200 194 190 184 163 141 141 173 179 168 149 149 161 180 198 170 145 126 126 133 147 161 161 160 142 125 117
283 278 273 269 266 259 255 260 247 233 210 202 226 245 240 225 199 186 183 170 154 150 161 187 179 168 156 157 167 180 178 154 136 127 136 154 172 168 158 163 166 155 150
280 278 274 269 262 256 249 249 247 226 219 217 220 219 214 187 178 178 176 170 172 171 184 189 177 165 158 164 173 169 164 150 134 139 156 170 158 143 146 164 158 138 138
283 280 275 267 261 252 245 243 236 229 224 213 198 198 181 173 173 175 166 157 178 189 196 179 166 160 163 168 168 164 160 147 149 162 171 165 147 146 155 157 143 137 129
292 281 276 271 258 239 230 234 233 234 231 203 144 138 147 145 140 151 157 178 181 182 187 167 162 160 161 161 157 153 147 152 163 160 153 143 146 156 162 162 139 143 148
300 296 290 270 229 224 223 224 226 230 216 183 169 156 151 150 144 150 178 188 177 171 190 219 171 149 146 147 137 136 145 156 152 143 141 148 163 171 164 146 138 152 180
322 323 284 248 239 230 227 226 222 212 207 193 172 159 163 160 153 163 172 169 170 189 212 235 198 153 147 145 140 146 153 152 156 151 155 168 170 156 140 134 146 173 170
344 355 16 172 182 202 214 223 235 231 195 152 140 147 158 147 146 163 165 158 173 199 211 217 205 160 152 153 147 155 158 159 169 154 156 167 153 149 151 155 171 178 158
353 350 313 222 200 201 218 217 194 136 113 120 133 148 161 153 155 169 163 162 181 200 209 201 199 166 151 147 150 161 163 165 170 154 155 158 160 159 154 160 168 166 163
352 1 24 81 131 134 129 118 108 103 102 114 128 144 149 150 164 172 168 168 190 203 185 181 188 167 151 147 156 170 165 159 163 159 160 164 171 175 165 165 176 183 184
359 3 9 18 38 72 95 99 95 97 109 123 138 150 154 159 169 174 175 179 196 199 174 186 236 182 162 162 171 175 160 155 164 168 161 177 181 183 179 177 185 195 194
309 328 326 310 298 274 244 207 178 178 173 175 176 175 174 176 178 178 181 187 197 188 175 205 244 224 171 177 176 155 148 148 150 160 177 191 206 190 183 197 208 208 211
Height
1479 1477 1476 1474 1472 1471 1470 1469 1468 1467 1466 1465 1464 1464 1465 1465 1466 1465 1464 1462 1459 1456 1455 1454 1453 1450 1447 1445 1443 1442 1442 1444 1445 1447 1449 1450 1452 1454 1458 1461 1465 1468 1470
1476 1473 1471 1468 1466 1465 1463 1462 1460 1459 1459 1459 1458 1457 1457 1458 1459 1460 1459 1457 1455 1452 1451 1450 1449 1448 1445 1442 1440 1438 1436 1437 1439 1441 1444 1447 1450 1453 1457 1460 1464 1467 1469
1472 1469 1466 1463 1461 1458 1456 1454 1452 1450 1449 1449 1450 1450 1449 1450 1451 1453 1453 1452 1450 1448 1447 1447 1446 1445 1442 1439 1436 1433 1431 1431 1434 1436 1440 1444 1448 1452 1456 1460 1464 1467 1470
1465 1462 1460 1458 1455 1453 1450 1448 1446 1443 1441 1440 1440 1441 1441 1441 1443 1445 1446 1446 1445 1443 1443 1443 1443 1442 1440 1437 1434 1430 1428 1428 1430 1433 1437 1442 1447 1451 1455 1459 1463 1467 1470
1459 1456 1453 1451 1449 1446 1443 1441 1439 1437 1436 1433 1432 1434 1435 1434 1435 1437 1439 1440 1440 1439 1438 1439 1439 1439 1438 1436 1433 1430 1428 1427 1429 1431 1435 1440 1445 1450 1455 1459 1462 1467 1470
1453 1450 1448 1445 1442 1439 1437 1435 1433 1432 1431 1429 1428 1428 1429 1428 1428 1429 1431 1433 1434 1435 1434 1435 1436 1437 1436 1435 1433 1431 1430 1429 1429 1432 1435 1440 1445 1450 1455 1459 1463 1466 1471
1445 1442 1440 1438 1435 1432 1430 1427 1426 1425 1425 1424 1424 1424 1424 1423 1423 1422 1423 1426 1429 1430 1430 1431 1433 1434 1435 1434 1434 1433 1434 1435 1436 1436 1438 1442 1446 1450 1455 1459 1464 1467 1470
1436 1434 1432 1430 1427 1424 1422 1420 1418 1418 1417 1417 1417 1418 1418 1418 1417 1417 1417 1418 1422 1425 1426 1427 1429 1432 1433 1434 1435 1435 1436 1438 1440 1442 1443 1446 1450 1454 1458 1462 1466 1469 1473
1427 1425 1423 1421 1418 1415 1413 1411 1410 1410 1410 1410 1410 1411 1412 1412 1411 1412 1411 1412 1416 1421 1423 1424 1426 1429 1432 1434 1435 1436 1438 1441 1444 1446 1448 1450 1453 1457 1460 1464 1467 1470 1474
1417 1415 1412 1410 1408 1405 1403 1401 1401 1402 1402 1403 1403 1405 1406 1406 1406 1407 1407 1408 1412 1416 1419 1421 1423 1426 1430 1433 1435 1436 1439 1442 1445 1448 1451 1454 1457 1459 1462 1465 1467 1470 1473
1406 1403 1401 1399 1397 1395 1392 1391 1392 1393 1394 1395 1396 1398 1400 1400 1400 1401 1403 1405 1407 1411 1414 1417 1420 1423 1428 1432 1434 1437 1439 1442 1446 1450 1452 1455 1458 1459 1461 1463 1466 1469 1472
1395 1392 1389 1387 1386 1385 1383 1382 1383 1384 1385 1387 1389 1391 1393 1395 1395 1396 1398 1400 1403 1406 1408 1412 1416 1421 1425 1430 1433 1436 1439 1443 1447 1450 1453 1455 1457 1459 1461 1464 1466 1468 1471
1383 1380 1377 1375 1374 1374 1374 1373 1374 1375 1377 1379 1381 1384 1386 1388 1388 1390 1392 1394 1397 1400 1403 1405 1410 1417 1422 1427 1431 1435 1438 1442 1446 1450 1453 1455 1457 1458 1461 1464 1466 1468 1470
1369 1366 1364 1364 1363 1364 1364 1365 1366 1367 1369 1371 1374 1377 1379 1381 1382 1384 1386 1389 1391 1394 1398 1401 1407 1414 1419 1424 1429 1434 1438 1441 1445 1449 1452 1454 1456 1459 1461 1463 1466 1468 1470
1357 1355 1354 1353 1353 1354 1355 1356 1358 1360 1362 1364 1367 1371 1373 1375 1378 1380 1381 1384 1386 1390 1395 1399 1405 1411 1416 1421 1427 1432 1436 1440 1444 1447 1450 1453 1457 1460 1461 1463 1466 1468 1470
1349 1347 1346 1345 1345 1346 1347 1349 1350 1353 1356 1359 1362 1366 1368 1371 1374 1376 1378 1381 1384 1387 1392 1399 1404 1408 1413 1419 1425 1431 1435 1438 1442 1445 1448 1453 1457 1460 1462 1464 1467 1469 1470
1342 1340 1339 1338 1338 1339 1341 1343 1345 1348 1350 1353 1358 1362 1365 1367 1370 1372 1374 1377 1381 1385 1391 1399 1404 1407 1412 1418 1424 1429 1433 1436 1440 1444 1448 1453 1456 1459 1462 1464 1467 1470 1471
1335 1333 1332 1332 1332 1333 1335 1338 1340 1343 1345 1348 1352 1357 1361 1364 1366 1368 1371 1374 1378 1384 1391 1398 1403 1407 1412 1418 1423 1427 1431 1435 1439 1444 1448 1452 1455 1458 1461 1464 1467 1469 1471
1330 1328 1327 1327 1328 1329 1331 1334 1337 1340 1343 1346 1350 1353 1356 1360 1362 1365 1368 1372 1378 1384 1390 1396 1402 1407 1412 1417 1422 1426 1430 1434 1439 1443 1448 1451 1454 1457 1460 1463 1466 1468 1470
1328 1326 1325 1325 1327 1328 1331 1333 1336 1338 1341 1345 1348 1351 1353 1356 1359 1363 1367 1373 1379 1385 1390 1396 1402 1407 1412 1417 1421 1425 1429 1434 1438 1443 1447 1450 1454 1456 1459 1462 1464 1467 1469
1330 1328 1326 1327 1328 1330 1332 1334 1336 1338 1341 1344 1347 1350 1353 1356 1358 1362 1369 1376 1381 1386 1391 1396 1402 1408 1412 1417 1421 1425 1430 1434 1438 1442 1446 1450 1453 1455 1458 1460 1462 1465 1468
1336 1333 1331 1331 1331 1332 1334 1336 1337 1339 1341 1345 1348 1351 1355 1358 1360 1365 1372 1378 1384 1388 1393 1398 1403 1408 1413 1417 1420 1425 1429 1434 1438 1442 1445 1448 1451 1454 1456 1459 1461 1464 1466
1342 1340 1338 1337 1337 1337 1338 1339 1341 1342 1344 1347 1349 1353 1357 1360 1364 1369 1375 1381 1386 1391 1395 1400 1404 1409 1413 1417 1421 1425 1429 1433 1437 1441 1444 1447 1450 1453 1456 1458 1460 1463 1464
1348 1345 1344 1343 1343 1343 1343 1344 1345 1346 1348 1349 1352 1355 1359 1362 1367 1372 1378 1383 1388 1393 1397 1401 1405 1409 1414 1418 1422 1426 1430 1433 1437 1440 1444 1447 1450 1452 1455 1457 1459 1461 1462
1351 1349 1348 1346 1346 1346 1346 1346 1347 1349 1350 1352 1354 1357 1360 1364 1369 1375 1380 1385 1390 1394 1398 1402 1406 1410 1414 1418 1422 1426 1430 1433 1436 1440 1443 1446 1448 1451 1453 1455 1457 1458 1460
1352 1350 1348 1346 1345 1344 1345 1345 1347 1348 1350 1352 1354 1357 1361 1365 1370 1376 1382 1387 1391 1396 1400 1403 1406 1410 1414 1418 1422 1425 1428 1432 1435 1438 1441 1444 1446 1449 1451 1453 1454 1456 1457